Newton, KS

3:04 PM CDT on June 26, 2017 (GMT -0500)
Newton City County

Weather History for KEWK - November, 2013

Change the Weather History Date:

Monday, November 4, 2013

  Actual Average Record
Temperature  
Mean Temperature 54 °F -  
Max Temperature 60 °F 55 °F 73 °F (2001)
Min Temperature 48 °F 37 °F 28 °F (2011)
Degree Days  
Heating Degree Days 11    
Growing Degree Days 4 (Base 50)    
Moisture  
Dew Point 40 °F    
Average Humidity 61    
Maximum Humidity 82    
Minimum Humidity 45    
Precipitation  
Precipitation 0.00 in - - ()
Sea Level Pressure  
Sea Level Pressure 29.95 in    
Wind  
Wind Speed 17 mph (South)    
Max Wind Speed 29 mph    
Max Gust Speed 34 mph    
Visibility 10 miles    
Events      
Averages and records for this station are not official NWS values.
T = Trace of Precipitation, MM = Missing Value Source: NWS Daily Summary

Daily Weather History Graph

Daily Weather History Graph

Search for Another Location

Airport or City:

Trip Planner

Search our weather history database for the weather conditions in past years. The results will help you decide how hot, cold, wet, or windy it might be!

Date:

Astronomy

Nov. 04, 2013 Rise Set
Actual Time 6:58 AM CST 5:26 PM CST
Civil Twilight 6:30 AM CST 5:53 PM CST
Nautical Twilight 5:59 AM CST 6:25 PM CST
Astronomical Twilight 5:28 AM CST 6:56 PM CST
Moon 8:09 AM CST (11/4) 6:33 PM CST (11/4)
Length of Visible Light 11h 23m
Length of Day
10h 28m
New Moon, 2% of the Moon is Illuminated
Nov 4
New Moon
Nov 9
First Quarter
Nov 17
Full
Nov 25
Last Quarter
Dec 2
New

Hourly Weather History & Observations

Time (CST) Temp. Dew Point Humidity Pressure Visibility Wind Dir Wind Speed Gust Speed Precip Events Conditions
12:15 AM 51.8 °F 37.4 °F 58% 29.83 in 10.0 mi South 28.8 mph 34.5 mph N/A   Clear
12:35 AM 51.8 °F 37.4 °F 58% 29.83 in 10.0 mi South 21.9 mph 32.2 mph N/A   Mostly Cloudy
12:55 AM 51.8 °F 37.4 °F 58% 29.84 in 10.0 mi South 18.4 mph 28.8 mph N/A   Partly Cloudy
1:15 AM 51.8 °F 37.4 °F 58% 29.83 in 10.0 mi South 23.0 mph 27.6 mph N/A   Clear
1:35 AM 51.8 °F 37.4 °F 58% 29.82 in 10.0 mi South 25.3 mph 29.9 mph N/A   Clear
1:55 AM 51.8 °F 37.4 °F 58% 29.82 in 10.0 mi South 20.7 mph 28.8 mph N/A   Clear
2:15 AM 50.0 °F 37.4 °F 62% 29.82 in 10.0 mi South 20.7 mph 31.1 mph N/A   Clear
2:35 AM 50.0 °F 37.4 °F 62% 29.82 in 10.0 mi South 20.7 mph 28.8 mph N/A   Clear
2:55 AM 50.0 °F 39.2 °F 66% 29.82 in 10.0 mi South 17.3 mph 31.1 mph N/A   Mostly Cloudy
3:15 AM 50.0 °F 39.2 °F 66% 29.82 in 10.0 mi South 20.7 mph 29.9 mph N/A   Mostly Cloudy
3:35 AM 50.0 °F 39.2 °F 66% 29.81 in 10.0 mi South 23.0 mph 33.4 mph N/A   Partly Cloudy
3:55 AM 50.0 °F 39.2 °F 66% 29.81 in 10.0 mi South 24.2 mph 31.1 mph N/A   Clear
4:15 AM 50.0 °F 39.2 °F 66% 29.80 in 10.0 mi South 24.2 mph 29.9 mph N/A   Clear
4:35 AM 50.0 °F 39.2 °F 66% 29.81 in 10.0 mi South 20.7 mph 32.2 mph N/A   Clear
4:55 AM 50.0 °F 39.2 °F 66% 29.82 in 10.0 mi South 21.9 mph 27.6 mph N/A   Clear
5:15 AM 50.0 °F 39.2 °F 66% 29.82 in 10.0 mi South 21.9 mph 31.1 mph N/A   Clear
5:35 AM 50.0 °F 39.2 °F 66% 29.83 in 10.0 mi South 23.0 mph 31.1 mph N/A   Clear
5:55 AM 50.0 °F 39.2 °F 66% 29.84 in 10.0 mi South 19.6 mph 27.6 mph N/A   Clear
6:15 AM 48.2 °F 39.2 °F 71% 29.84 in 10.0 mi South 24.2 mph 29.9 mph N/A   Clear
6:35 AM 48.2 °F 39.2 °F 71% 29.85 in 10.0 mi South 19.6 mph 28.8 mph N/A   Clear
6:55 AM 48.2 °F 39.2 °F 71% 29.85 in 10.0 mi South 20.7 mph 26.5 mph N/A   Clear
7:15 AM 48.2 °F 39.2 °F 71% 29.87 in 10.0 mi SSW 24.2 mph 29.9 mph N/A   Clear
7:35 AM 48.2 °F 39.2 °F 71% 29.88 in 10.0 mi SSW 21.9 mph 27.6 mph N/A   Clear
7:55 AM 50.0 °F 41.0 °F 71% 29.88 in 10.0 mi SSW 23.0 mph 29.9 mph N/A   Clear
8:15 AM 51.8 °F 41.0 °F 67% 29.89 in 10.0 mi SSW 23.0 mph 29.9 mph N/A   Partly Cloudy
8:35 AM 51.8 °F 41.0 °F 67% 29.91 in 10.0 mi SSW 19.6 mph 29.9 mph N/A   Scattered Clouds
8:55 AM 51.8 °F 42.8 °F 71% 29.92 in 10.0 mi SSW 24.2 mph 29.9 mph N/A   Scattered Clouds
9:15 AM 53.6 °F 41.0 °F 62% 29.93 in 10.0 mi SW 19.6 mph 25.3 mph N/A   Mostly Cloudy
9:35 AM 53.6 °F 41.0 °F 62% 29.93 in 10.0 mi SW 20.7 mph 29.9 mph N/A   Overcast
9:55 AM 53.6 °F 42.8 °F 67% 29.94 in 10.0 mi WSW 20.7 mph 25.3 mph N/A   Overcast
10:15 AM 53.6 °F 42.8 °F 67% 29.95 in 10.0 mi SW 19.6 mph 24.2 mph N/A   Scattered Clouds
10:35 AM 53.6 °F 39.2 °F 58% 29.96 in 10.0 mi West 17.3 mph 21.9 mph N/A   Clear
10:55 AM 55.4 °F 37.4 °F 51% 29.97 in 10.0 mi WSW 15.0 mph - N/A   Clear
11:15 AM 55.4 °F 37.4 °F 51% 29.98 in 10.0 mi WSW 12.7 mph 18.4 mph N/A   Clear
11:35 AM 55.4 °F 39.2 °F 54% 29.99 in 10.0 mi WNW 9.2 mph - N/A   Clear
11:55 AM 55.4 °F 39.2 °F 54% 29.99 in 10.0 mi West 6.9 mph - N/A   Clear
12:15 PM 57.2 °F 39.2 °F 51% 29.99 in 10.0 mi WNW 9.2 mph - N/A   Clear
12:35 PM 57.2 °F 39.2 °F 51% 29.99 in 10.0 mi NW 8.1 mph - N/A   Clear
12:55 PM 57.2 °F 39.2 °F 51% 29.99 in 10.0 mi West 5.8 mph - N/A   Clear
1:15 PM 59.0 °F 39.2 °F 48% 29.98 in 10.0 mi WNW 6.9 mph - N/A   Clear
1:35 PM 60.8 °F 39.2 °F 45% 29.98 in 10.0 mi WNW 4.6 mph - N/A   Clear
1:55 PM 60.8 °F 39.2 °F 45% 29.98 in 10.0 mi West 5.8 mph - N/A   Clear
2:15 PM 60.8 °F 39.2 °F 45% 29.98 in 10.0 mi West 5.8 mph - N/A   Clear
2:35 PM 60.8 °F 39.2 °F 45% 29.98 in 10.0 mi East 3.5 mph - N/A   Clear
2:55 PM 60.8 °F 39.2 °F 45% 29.98 in 10.0 mi Calm Calm - N/A   Clear
3:15 PM 60.8 °F 39.2 °F 45% 29.99 in 10.0 mi Calm Calm - N/A   Clear
3:35 PM 60.8 °F 39.2 °F 45% 29.99 in 10.0 mi SE 3.5 mph - N/A   Partly Cloudy
3:55 PM 60.8 °F 39.2 °F 45% 30.00 in 10.0 mi SSE 3.5 mph - N/A   Partly Cloudy
4:15 PM 59.0 °F 39.2 °F 48% 30.00 in 10.0 mi SSE 5.8 mph - N/A   Clear
4:35 PM 59.0 °F 41.0 °F 51% 30.01 in 10.0 mi SE 5.8 mph - N/A   Clear
4:55 PM 57.2 °F 42.8 °F 59% 30.01 in 10.0 mi SSE 4.6 mph - N/A   Clear
5:15 PM 55.4 °F 42.8 °F 63% 30.01 in 10.0 mi SSE 3.5 mph - N/A   Clear
5:35 PM 55.4 °F 42.8 °F 63% 30.02 in 10.0 mi SSE 3.5 mph - N/A   Clear
5:55 PM 55.4 °F 42.8 °F 63% 30.02 in 10.0 mi Calm Calm - N/A   Clear
6:15 PM 55.4 °F 41.0 °F 58% 30.03 in 10.0 mi Calm Calm - N/A   Clear
6:35 PM 53.6 °F 41.0 °F 62% 30.04 in 10.0 mi Calm Calm - N/A   Clear
6:55 PM 53.6 °F 41.0 °F 62% 30.05 in 10.0 mi ESE 3.5 mph - N/A   Clear
7:15 PM 55.4 °F 39.2 °F 54% 30.05 in 10.0 mi East 3.5 mph - N/A   Clear
7:35 PM 53.6 °F 41.0 °F 62% 30.05 in 10.0 mi East 3.5 mph - N/A   Partly Cloudy
7:55 PM 53.6 °F 42.8 °F 67% 30.06 in 10.0 mi East 4.6 mph - N/A   Mostly Cloudy
8:15 PM 53.6 °F 41.0 °F 62% 30.06 in 10.0 mi East 3.5 mph - N/A   Partly Cloudy
8:35 PM 53.6 °F 41.0 °F 62% 30.06 in 10.0 mi East 3.5 mph - N/A   Mostly Cloudy
8:55 PM 51.8 °F 41.0 °F 67% 30.06 in 10.0 mi East 3.5 mph - N/A   Mostly Cloudy
9:15 PM 51.8 °F 41.0 °F 67% 30.07 in 10.0 mi East 4.6 mph - N/A   Overcast
9:35 PM 51.8 °F 42.8 °F 71% 30.07 in 10.0 mi East 4.6 mph - N/A   Overcast
9:55 PM 53.6 °F 42.8 °F 67% 30.07 in 10.0 mi SE 5.8 mph - N/A   Overcast
10:15 PM 53.6 °F 44.6 °F 72% 30.07 in 10.0 mi SE 4.6 mph - N/A   Overcast
10:35 PM 53.6 °F 44.6 °F 72% 30.07 in 10.0 mi SE 5.8 mph - N/A   Overcast
10:55 PM 53.6 °F 46.4 °F 77% 30.07 in 10.0 mi SSE 5.8 mph - N/A   Overcast
11:15 PM 53.6 °F 46.4 °F 77% 30.07 in 10.0 mi SSE 5.8 mph - N/A   Overcast
11:35 PM 53.6 °F 46.4 °F 77% 30.07 in 10.0 mi SSE 6.9 mph - N/A   Overcast
11:55 PM 53.6 °F 48.2 °F 82% 30.06 in 10.0 mi SSE 8.1 mph - N/A   Overcast